Home > Weather > Weno > Past weeks

Flag for Micronesia Past Weather in Weno, Truk, Micronesia — Yesterday and Last 2 Weeks

Now
82 °F

More clouds than sun.


Feels Like: 90 °F
Forecast: 80 / 86 °F
Wind: 6 mph from North

Location: Truk Intl / Moen Island

Current Time: Aug 29, 2016 at 7:11:24 PM

Latest Report: Aug 29, 2016 at 5:50 PM


Visibility: 15 mi

Pressure: 29.83 "Hg

Humidity: 81%

Dew Point: 76 °F

Location of WenoLocation

Past Weather in Weno — Graph

°F

Weno Temperature Yesterday

Maximum temperature yesterday: 89 °F (at 11:53 AM)
Minimum temperature yesterday: 76 °F (at 12:50 AM)
Average temperature yesterday: 82 °F

High & Low Weather Summary for the Past Weeks

 TemperatureHumidityPressure
High90 °F (Aug 17, 1:51 PM)99% (Aug 28, 3:50 AM)29.92 "Hg (Aug 28, 3:50 AM)
Low76 °F (Aug 17, 4:54 AM)67% (Aug 19, 3:50 PM)29.65 "Hg (Aug 22, 2:51 PM)
Average83 °F88%29.79 "Hg
* Reported Aug 14 5:50 PM — Aug 29 5:50 PM, Weno, Weather by CustomWeather, © 2016

Note: Actual official high and low records may vary slightly from our data, if they occured in-between our weather recording intervals... More about our weather records

Advertising

Weno Weather History for the Previous 24 Hours

Scroll right to see more
 ConditionsComfort  
Time TempWeatherWind HumidityBarometerVisibility
5:50 PM
Mon, Aug 29
82 °FMore clouds than sun.6 mph81%29.83 "Hg15 mi
4:50 PM83 °FMostly cloudy.3 mph80%29.82 "Hg15 mi
3:51 PM84 °FMostly cloudy.3 mph81%29.80 "Hg15 mi
2:50 PM84 °FMostly cloudy.3 mph83%29.80 "Hg15 mi
1:51 PM83 °FMostly cloudy.3 mph84%29.80 "Hg15 mi
12:50 PM84 °FCloudy.3 mph85%29.81 "Hg15 mi
11:50 AM83 °FMostly cloudy.6 mph86%29.84 "Hg15 mi
10:53 AM82 °FMostly cloudy.6 mph89%29.86 "Hg15 mi
9:50 AM79 °FLight rain. Mostly cloudy.5 mph93%29.91 "Hg14 mi
8:50 AM80 °FLight rain. Mostly cloudy.5 mph92%29.92 "Hg14 mi
7:50 AM79 °FLight rain. Mostly cloudy.5 mph98%29.92 "Hg14 mi
6:54 AM78 °FLight rain. Mostly cloudy.5 mph98%29.89 "Hg15 mi
5:53 AM78 °FLight rain. Mostly cloudy.5 mph96%29.87 "Hg15 mi
4:53 AM80 °FOvercast.5 mph87%29.86 "Hg15 mi
3:50 AM80 °FOvercast.5 mph87%29.86 "Hg15 mi
2:50 AM80 °FOvercast.6 mph89%29.85 "Hg15 mi
1:50 AM80 °FOvercast.6 mph89%29.87 "Hg15 mi
12:50 AM80 °FOvercast.8 mph92%29.87 "Hg15 mi
11:55 PM
Sun, Aug 28
80 °FSprinkles. Overcast.12 mph90%29.92 "Hg15 mi
10:50 PM80 °FOvercast.15 mph90%29.92 "Hg15 mi
9:50 PM80 °FOvercast.13 mph92%29.92 "Hg15 mi
8:50 PM80 °FSprinkles. Overcast.No wind94%29.90 "Hg14 mi
7:50 PM81 °FOvercast.No wind89%29.89 "Hg15 mi
Weather by CustomWeather, © 2016

See weather overviewHow to use our weather pages